Location: Newark
(41.0400°S, 62.7845°W)
Time: 18:49:27
(UTC+00:00)

ISS - Pass Details

Date: 25 October 2021
Orbit: 417 x 423 km, 51.6° (Epoch: 29 November)

Event Time Altitude Azimuth Distance (km) Brightness Sun altitude
Rises 00:22:34 0° 236° (SW) 2,414 1.9 -17.7°
Reaches altitude 10° 00:25:25 10° 211° (SSW) 1,547 0.1 -18.2°
Maximum altitude 00:27:29 15° 174° (S) 1,285 -0.9 -18.5°
Drops below altitude 10° 00:29:33 10° 138° (SE) 1,547 -1.0 -18.8°
Enters shadow 00:29:46 - 135° (SE) 1,598 -0.9 -18.8°
